Weather History for North Myrtle Beach, SC

Change the Weather History Date:

Sunday, November 11, 2012

  Actual Average Record
Temperature  
Mean Temperature 58 °F 58 °F  
Max Temperature 73 °F 68 °F 82 °F (1998)
Min Temperature 43 °F 48 °F 33 °F (2011)
Degree Days  
Heating Degree Days 7 8  
Month to date heating degree days 141 75  
Since 1 July heating degree days 227 165  
Cooling Degree Days 0 1  
Month to date cooling degree days 0 11  
Year to date cooling degree days 2095 1894  
Growing Degree Days 8 (Base 50)    
Moisture  
Dew Point 51 °F    
Average Humidity 79    
Maximum Humidity 100    
Minimum Humidity 57    
Precipitation  
Precipitation 0.00 in 0.09 in 0.93 in (2002)
Month to date precipitation 0.31 1.15  
Year to date precipitation 33.54 46.66  
Sea Level Pressure  
Sea Level Pressure 30.42 in    
Wind  
Wind Speed 7 mph (ENE)    
Max Wind Speed 16 mph    
Max Gust Speed 22 mph    
Visibility 8 miles    
Events      
T = Trace of Precipitation, MM = Missing Value Source: NWS Daily Summary

Daily Weather History Graph

Daily Weather History Graph

Search for Another Location

Airport:

Trip Planner

Search our weather history database for the weather conditions in past years. The results will help you decide how hot, cold, wet, or windy it might be!

Date:

Astronomy

Nov. 11, 2012 Rise Set
Actual Time 6:43 AM EST 5:13 PM EST
Civil Twilight 6:17 AM EST 5:40 PM EST
Nautical Twilight 5:47 AM EST 6:10 PM EST
Astronomical Twilight 5:17 AM EST 6:39 PM EST
Moon 4:01 AM EST (11/11) 3:31 PM EST (11/11)
Length of Visible Light 11h 22m
Length of Day
10h 30m
Waning Crescent, 7% of the Moon is Illuminated
Nov 11
Waning Crescent
Nov 13
New
Nov 20
First Quarter
Nov 28
Full
Dec 6
Last Quarter

Hourly Weather History & Observations

Time (EST) Temp. Windchill Dew Point Humidity Pressure Visibility Wind Dir Wind Speed Gust Speed Precip Events Conditions
12:53 AM 43.0 °F - 43.0 °F 100% 30.40 in 6.0 mi Calm Calm - N/A   Clear
1:53 AM 44.1 °F 42.5 °F 43.0 °F 96% 30.39 in 5.0 mi ENE 3.5 mph - N/A   Clear
2:53 AM 45.0 °F 43.5 °F 44.1 °F 97% 30.40 in 6.0 mi NE 3.5 mph - N/A   Clear
3:26 AM 42.8 °F - 42.8 °F 100% 30.40 in 1.8 mi Calm Calm - N/A   Clear
3:45 AM 44.6 °F 43.1 °F 44.6 °F 100% 30.40 in 3.0 mi NE 3.5 mph - N/A   Clear
3:53 AM 45.0 °F 43.5 °F 44.1 °F 97% 30.40 in 4.0 mi NE 3.5 mph - N/A   Clear
4:53 AM 46.0 °F 44.8 °F 45.0 °F 96% 30.41 in 8.0 mi NE 3.5 mph - N/A   Clear
5:53 AM 45.0 °F - 44.1 °F 97% 30.42 in 4.0 mi Calm Calm - N/A   Clear
6:53 AM 45.0 °F - 44.1 °F 97% 30.43 in 3.0 mi Calm Calm - N/A   Clear
7:53 AM 54.0 °F - 51.1 °F 90% 30.45 in 10.0 mi NE 3.5 mph - N/A   Clear
8:53 AM 63.0 °F - 55.0 °F 75% 30.46 in 10.0 mi NE 4.6 mph - N/A   Clear
9:53 AM 69.1 °F - 57.0 °F 65% 30.48 in 10.0 mi NE 6.9 mph - N/A   Clear
1:53 PM 73.0 °F - 57.0 °F 57% 30.43 in 10.0 mi ESE 10.4 mph - N/A   Clear
2:53 PM 71.1 °F - 57.9 °F 63% 30.43 in 10.0 mi East 9.2 mph 16.1 mph N/A   Clear
3:53 PM 70.0 °F - 55.9 °F 61% 30.43 in 10.0 mi East 10.4 mph - N/A   Clear
4:53 PM 66.9 °F - 55.9 °F 68% 30.42 in 10.0 mi East 9.2 mph - N/A   Clear
5:53 PM 64.9 °F - 57.0 °F 75% 30.42 in 10.0 mi East 9.2 mph - N/A   Clear
6:53 PM 64.9 °F - 57.0 °F 75% 30.43 in 10.0 mi East 9.2 mph - N/A   Clear
7:53 PM 64.0 °F - 57.0 °F 78% 30.43 in 10.0 mi East 9.2 mph - N/A   Clear
8:53 PM 64.0 °F - 57.0 °F 78% 30.43 in 10.0 mi ENE 9.2 mph - N/A   Clear
10:53 PM 64.0 °F - 57.9 °F 80% 30.41 in 10.0 mi East 9.2 mph - N/A   Scattered Clouds
11:53 PM 63.0 °F - 57.9 °F 84% 30.40 in 10.0 mi East 9.2 mph - N/A   Clear